EN

Hourly Weather Amatenango del Valle

Today, 24 January, Sunday

Time Temperature Precipitation Wind Pressure Humidity
00:00 +13°C° 0 mm 1 mps 609 mmHg 75%
01:00 +13°C° 0 mm 1 mps 609 mmHg 73%
02:00 +12°C° 0 mm 1 mps 609 mmHg 70%
03:00 +12°C° 0 mm 1 mps 609 mmHg 68%
04:00 +12°C° 0 mm 1 mps 609 mmHg 69%
05:00 +12°C° 0 mm 1 mps 609 mmHg 69%
06:00 +12°C° 0 mm 1 mps 609 mmHg 70%
07:00 +14°C° 0 mm 1 mps 610 mmHg 64%
08:00 +16°C° 0 mm 1 mps 611 mmHg 58%
09:00 +19°C° 0 mm 1 mps 612 mmHg 52%
10:00 +21°C° 0 mm 1 mps 612 mmHg 49%
11:00 +22°C° 0 mm 1 mps 613 mmHg 45%
12:00 +24°C° 0 mm 1 mps 613 mmHg 42%
13:00 +24°C° 0 mm 1 mps 612 mmHg 43%
14:00 +24°C° 0 mm 1 mps 612 mmHg 44%
15:00 +24°C° 0 mm 1 mps 611 mmHg 45%
16:00 +22°C° 0 mm 1 mps 610 mmHg 53%
17:00 +19°C° 0 mm 1 mps 610 mmHg 62%
18:00 +16°C° 0 mm 1 mps 609 mmHg 71%
19:00 +16°C° 0 mm 1 mps 609 mmHg 72%
20:00 +15°C° 0 mm 1 mps 609 mmHg 74%
21:00 +14°C° 0 mm 1 mps 609 mmHg 75%
22:00 +14°C° 0 mm 1 mps 609 mmHg 75%
23:00 +14°C° 0 mm 1 mps 609 mmHg 76%

Tomorrow, 25 January, Monday

Time Temperature Precipitation Wind Pressure Humidity
00:00 +14°C° 0 mm 1 mps 609 mmHg 76%
01:00 +13°C° 0 mm 1 mps 608 mmHg 77%
02:00 +13°C° 0 mm 1 mps 608 mmHg 77%
03:00 +13°C° 0 mm 1 mps 608 mmHg 78%
04:00 +13°C° 0 mm 1 mps 608 mmHg 78%
05:00 +13°C° 0 mm 1 mps 608 mmHg 78%
06:00 +12°C° 0 mm 1 mps 608 mmHg 78%
07:00 +15°C° 0 mm 1 mps 609 mmHg 72%
08:00 +18°C° 0 mm 1 mps 611 mmHg 65%
09:00 +20°C° 0 mm 1 mps 612 mmHg 58%
10:00 +22°C° 0 mm 1 mps 612 mmHg 53%
11:00 +23°C° 0 mm 1 mps 612 mmHg 49%
12:00 +25°C° 0 mm 1 mps 612 mmHg 44%
13:00 +25°C° 0 mm 1 mps 612 mmHg 45%
14:00 +25°C° 0 mm 1 mps 611 mmHg 45%
15:00 +25°C° 0 mm 1 mps 611 mmHg 46%
16:00 +23°C° 0 mm 1 mps 610 mmHg 54%
17:00 +21°C° 0 mm 1 mps 609 mmHg 62%
18:00 +18°C° 0 mm 1 mps 609 mmHg 70%
19:00 +18°C° 0 mm 1 mps 609 mmHg 73%
20:00 +15°C° 0 mm 0 mps 609 mmHg 76%
21:00 +14°C° 0 mm 0 mps 609 mmHg 79%
22:00 +14°C° 0 mm 0 mps 609 mmHg 79%
23:00 +14°C° 0 mm 1 mps 609 mmHg 80%

Day after tomorrow, 26 January, Tuesday

Time Temperature Precipitation Wind Pressure Humidity
00:00 +14°C° 0 mm 1 mps 609 mmHg 81%
01:00 +14°C° 0 mm 1 mps 608 mmHg 81%
02:00 +13°C° 0 mm 1 mps 608 mmHg 81%
03:00 +13°C° 0 mm 1 mps 608 mmHg 81%
04:00 +13°C° 0 mm 1 mps 608 mmHg 81%
05:00 +13°C° 0 mm 1 mps 608 mmHg 80%
06:00 +13°C° 0 mm 1 mps 608 mmHg 80%
07:00 +15°C° 0 mm 1 mps 609 mmHg 72%
08:00 +16°C° 0 mm 0 mps 611 mmHg 65%
09:00 +19°C° 0 mm 0 mps 612 mmHg 58%
10:00 +22°C° 0 mm 1 mps 612 mmHg 54%
11:00 +24°C° 0 mm 1 mps 612 mmHg 49%
12:00 +25°C° 0 mm 1 mps 613 mmHg 45%
13:00 +25°C° 0 mm 1 mps 612 mmHg 46%
14:00 +25°C° 0 mm 1 mps 612 mmHg 46%
15:00 +25°C° 0 mm 1 mps 611 mmHg 47%
16:00 +23°C° 0 mm 1 mps 610 mmHg 54%
17:00 +21°C° 0 mm 1 mps 610 mmHg 61%
18:00 +19°C° 0 mm 1 mps 609 mmHg 69%
19:00 +18°C° 0 mm 1 mps 609 mmHg 71%
20:00 +16°C° 0 mm 1 mps 609 mmHg 74%
21:00 +16°C° 0 mm 1 mps 610 mmHg 77%
22:00 +15°C° 0 mm 1 mps 609 mmHg 78%
23:00 +14°C° 0 mm 1 mps 609 mmHg 80%

27 January, Wednesday

Time Temperature Precipitation Wind Pressure Humidity
00:00 +14°C° 0 mm 1 mps 609 mmHg 82%
01:00 +14°C° 0 mm 1 mps 609 mmHg 83%
02:00 +12°C° 0 mm 0 mps 609 mmHg 84%
03:00 +12°C° 0 mm 0 mps 609 mmHg 85%
04:00 +12°C° 0 mm 0 mps 609 mmHg 85%
05:00 +12°C° 0 mm 0 mps 609 mmHg 86%
06:00 +12°C° 0 mm 0 mps 609 mmHg 86%
07:00 +14°C° 0 mm 0 mps 610 mmHg 78%
08:00 +18°C° 0 mm 1 mps 611 mmHg 71%
09:00 +20°C° 0 mm 1 mps 613 mmHg 63%
10:00 +22°C° 0 mm 1 mps 613 mmHg 56%
11:00 +24°C° 0 mm 1 mps 613 mmHg 50%
12:00 +25°C° 0 mm 1 mps 614 mmHg 43%
13:00 +25°C° 0 mm 1 mps 613 mmHg 42%
14:00 +25°C° 0 mm 2 mps 613 mmHg 41%
15:00 +25°C° 0 mm 2 mps 612 mmHg 39%
16:00 +23°C° 0 mm 1 mps 612 mmHg 48%
17:00 +21°C° 0 mm 1 mps 611 mmHg 57%
18:00 +19°C° 0 mm 1 mps 610 mmHg 66%
19:00 +18°C° 0 mm 1 mps 611 mmHg 71%
20:00 +16°C° 0 mm 2 mps 611 mmHg 77%
21:00 +16°C° 0 mm 2 mps 612 mmHg 82%
22:00 +15°C° 0 mm 2 mps 611 mmHg 83%
23:00 +15°C° 0 mm 2 mps 611 mmHg 83%

28 January, Thursday

Time Temperature Precipitation Wind Pressure Humidity
00:00 +14°C° 0 mm 2 mps 611 mmHg 83%
01:00 +14°C° 0 mm 2 mps 611 mmHg 84%
02:00 +14°C° 0 mm 2 mps 611 mmHg 85%
03:00 +13°C° 0 mm 2 mps 611 mmHg 86%
04:00 +13°C° 0 mm 2 mps 611 mmHg 86%
05:00 +13°C° 0 mm 2 mps 611 mmHg 87%
06:00 +13°C° 0 mm 2 mps 611 mmHg 87%
07:00 +14°C° 0 mm 2 mps 612 mmHg 81%
08:00 +15°C° 0 mm 2 mps 613 mmHg 76%
09:00 +17°C° 0 mm 2 mps 614 mmHg 70%
10:00 +19°C° 0 mm 2 mps 614 mmHg 60%
11:00 +20°C° 0 mm 3 mps 615 mmHg 50%
12:00 +22°C° 0 mm 3 mps 615 mmHg 41%

29 January, Friday

Time Temperature Precipitation Wind Pressure Humidity
Show more